Hourly Weather Rublivka

Today, 29 July, Thursday

Time Temperature Precipitation Wind Pressure Humidity
00:00 +24°C° 0 mm 2 mps 745 mmHg 80%
01:00 +23°C° 0 mm 2 mps 745 mmHg 81%
02:00 +23°C° 0 mm 2 mps 745 mmHg 81%
03:00 +23°C° 0 mm 2 mps 745 mmHg 82%
04:00 +23°C° 0 mm 2 mps 744 mmHg 82%
05:00 +23°C° 0 mm 2 mps 744 mmHg 82%
06:00 +25°C° 0.2 mm 2 mps 744 mmHg 76%
07:00 +27°C° 0.2 mm 2 mps 744 mmHg 70%
08:00 +28°C° 0.2 mm 2 mps 745 mmHg 63%
09:00 +30°C° 0 mm 3 mps 744 mmHg 56%
10:00 +33°C° 0 mm 3 mps 744 mmHg 48%
11:00 +34°C° 0 mm 3 mps 744 mmHg 41%
12:00 +35°C° 0 mm 3 mps 744 mmHg 39%
13:00 +35°C° 0 mm 3 mps 744 mmHg 38%
14:00 +35°C° 0 mm 3 mps 743 mmHg 36%
15:00 +35°C° 0 mm 3 mps 743 mmHg 37%
16:00 +35°C° 0 mm 3 mps 743 mmHg 37%
17:00 +35°C° 0 mm 3 mps 742 mmHg 38%
18:00 +33°C° 0.1 mm 3 mps 742 mmHg 45%
19:00 +30°C° 0.1 mm 2 mps 742 mmHg 52%
20:00 +27°C° 0.1 mm 2 mps 742 mmHg 58%
21:00 +26°C° 0.6 mm 3 mps 742 mmHg 66%
22:00 +23°C° 0.6 mm 5 mps 743 mmHg 74%
23:00 +22°C° 0.6 mm 6 mps 743 mmHg 81%

Tomorrow, 30 July, Friday

Time Temperature Precipitation Wind Pressure Humidity
00:00 +21°C° 0.8 mm 5 mps 743 mmHg 85%
01:00 +21°C° 0.8 mm 5 mps 742 mmHg 89%
02:00 +21°C° 0.8 mm 4 mps 742 mmHg 92%
03:00 +20°C° 0 mm 3 mps 742 mmHg 93%
04:00 +20°C° 0 mm 3 mps 742 mmHg 94%
05:00 +20°C° 0 mm 3 mps 742 mmHg 95%
06:00 +21°C° 0 mm 3 mps 743 mmHg 88%
07:00 +23°C° 0 mm 4 mps 743 mmHg 81%
08:00 +25°C° 0 mm 4 mps 743 mmHg 74%
09:00 +27°C° 0 mm 4 mps 743 mmHg 69%
10:00 +28°C° 0 mm 4 mps 743 mmHg 63%
11:00 +29°C° 0 mm 5 mps 743 mmHg 57%
12:00 +30°C° 0.1 mm 5 mps 743 mmHg 54%
13:00 +30°C° 0.1 mm 5 mps 743 mmHg 51%
14:00 +30°C° 0.1 mm 5 mps 743 mmHg 49%
15:00 +30°C° 0 mm 5 mps 743 mmHg 47%
16:00 +30°C° 0 mm 5 mps 743 mmHg 46%
17:00 +30°C° 0 mm 5 mps 743 mmHg 45%
18:00 +28°C° 0 mm 4 mps 743 mmHg 49%
19:00 +27°C° 0 mm 4 mps 743 mmHg 52%
20:00 +25°C° 0 mm 3 mps 743 mmHg 56%
21:00 +24°C° 0 mm 3 mps 743 mmHg 58%
22:00 +24°C° 0 mm 3 mps 744 mmHg 59%
23:00 +22°C° 0 mm 3 mps 744 mmHg 60%

Day after tomorrow, 31 July, Saturday

Time Temperature Precipitation Wind Pressure Humidity
00:00 +23°C° 0 mm 2 mps 744 mmHg 62%
01:00 +21°C° 0 mm 2 mps 744 mmHg 64%
02:00 +21°C° 0 mm 2 mps 744 mmHg 66%
03:00 +20°C° 0 mm 2 mps 744 mmHg 67%
04:00 +20°C° 0 mm 2 mps 744 mmHg 68%
05:00 +21°C° 0 mm 1 mps 744 mmHg 69%
06:00 +23°C° 0 mm 2 mps 744 mmHg 63%
07:00 +25°C° 0 mm 2 mps 745 mmHg 57%
08:00 +27°C° 0 mm 2 mps 745 mmHg 51%
09:00 +28°C° 0 mm 2 mps 745 mmHg 47%
10:00 +30°C° 0 mm 2 mps 745 mmHg 43%
11:00 +31°C° 0 mm 2 mps 745 mmHg 39%
12:00 +31°C° 0 mm 2 mps 745 mmHg 37%
13:00 +32°C° 0 mm 2 mps 744 mmHg 35%
14:00 +34°C° 0 mm 2 mps 744 mmHg 33%
15:00 +32°C° 0 mm 2 mps 744 mmHg 34%
16:00 +32°C° 0 mm 2 mps 744 mmHg 34%
17:00 +32°C° 0 mm 2 mps 744 mmHg 34%
18:00 +30°C° 0 mm 2 mps 744 mmHg 39%
19:00 +28°C° 0 mm 1 mps 744 mmHg 44%
20:00 +26°C° 0 mm 1 mps 744 mmHg 49%
21:00 +25°C° 0 mm 1 mps 744 mmHg 49%
22:00 +25°C° 0 mm 1 mps 744 mmHg 50%
23:00 +24°C° 0 mm 1 mps 744 mmHg 50%

1 August, Sunday

Time Temperature Precipitation Wind Pressure Humidity
00:00 +24°C° 0 mm 1 mps 744 mmHg 51%
01:00 +24°C° 0 mm 1 mps 744 mmHg 51%
02:00 +23°C° 0 mm 1 mps 744 mmHg 52%
03:00 +23°C° 0 mm 2 mps 744 mmHg 53%
04:00 +23°C° 0 mm 2 mps 744 mmHg 55%
05:00 +23°C° 0 mm 2 mps 744 mmHg 56%
06:00 +25°C° 0 mm 2 mps 744 mmHg 52%
07:00 +27°C° 0 mm 3 mps 744 mmHg 48%
08:00 +29°C° 0 mm 3 mps 745 mmHg 43%
09:00 +31°C° 0 mm 3 mps 745 mmHg 39%
10:00 +33°C° 0 mm 3 mps 744 mmHg 35%
11:00 +35°C° 0 mm 3 mps 744 mmHg 31%
12:00 +35°C° 0 mm 3 mps 744 mmHg 30%
13:00 +36°C° 0 mm 3 mps 744 mmHg 29%
14:00 +36°C° 0 mm 3 mps 744 mmHg 28%
15:00 +36°C° 0 mm 3 mps 744 mmHg 29%
16:00 +36°C° 0 mm 3 mps 743 mmHg 30%
17:00 +35°C° 0 mm 3 mps 743 mmHg 31%
18:00 +32°C° 0 mm 2 mps 743 mmHg 36%
19:00 +30°C° 0 mm 2 mps 743 mmHg 41%
20:00 +28°C° 0 mm 1 mps 743 mmHg 46%
21:00 +27°C° 0.2 mm 1 mps 743 mmHg 50%
22:00 +26°C° 0.2 mm 2 mps 743 mmHg 53%
23:00 +25°C° 0.2 mm 2 mps 744 mmHg 57%

2 August, Monday

Time Temperature Precipitation Wind Pressure Humidity
00:00 +25°C° 0.3 mm 3 mps 743 mmHg 61%
01:00 +24°C° 0.3 mm 3 mps 743 mmHg 66%
02:00 +22°C° 0.3 mm 3 mps 743 mmHg 70%
03:00 +22°C° 0 mm 3 mps 743 mmHg 70%
04:00 +22°C° 0 mm 4 mps 743 mmHg 71%
05:00 +22°C° 0 mm 4 mps 742 mmHg 71%
06:00 +25°C° 0 mm 4 mps 742 mmHg 62%
07:00 +28°C° 0 mm 4 mps 742 mmHg 53%
08:00 +30°C° 0 mm 5 mps 742 mmHg 43%
09:00 +30°C° 0 mm 5 mps 743 mmHg 43%
10:00 +32°C° 0 mm 5 mps 743 mmHg 42%
11:00 +32°C° 0 mm 5 mps 743 mmHg 42%
12:00 +32°C° 0 mm 5 mps 742 mmHg 40%
13:00 +33°C° 0 mm 5 mps 742 mmHg 39%
14:00 +34°C° 0 mm 5 mps 742 mmHg 38%
15:00 +34°C° 0 mm 5 mps 741 mmHg 38%
16:00 +34°C° 0 mm 5 mps 741 mmHg 37%
17:00 +34°C° 0 mm 5 mps 741 mmHg 37%
18:00 +29°C° 1.4 mm 5 mps 742 mmHg 54%
19:00 +25°C° 1.4 mm 4 mps 743 mmHg 71%
20:00 +20°C° 1.4 mm 3 mps 743 mmHg 88%
21:00 +20°C° 0 mm 3 mps 743 mmHg 89%
22:00 +20°C° 0 mm 3 mps 743 mmHg 90%
23:00 +19°C° 0 mm 4 mps 743 mmHg 91%

3 August, Tuesday

Time Temperature Precipitation Wind Pressure Humidity
00:00 +19°C° 0 mm 4 mps 744 mmHg 92%
01:00 +19°C° 0 mm 4 mps 744 mmHg 92%
02:00 +19°C° 0 mm 5 mps 745 mmHg 93%
03:00 +17°C° 0 mm 5 mps 745 mmHg 93%
04:00 +17°C° 0 mm 5 mps 746 mmHg 92%
05:00 +16°C° 0 mm 5 mps 746 mmHg 91%
06:00 +17°C° 0 mm 5 mps 747 mmHg 84%
07:00 +19°C° 0 mm 5 mps 747 mmHg 76%
08:00 +20°C° 0 mm 6 mps 747 mmHg 69%
09:00 +21°C° 0 mm 5 mps 748 mmHg 61%
10:00 +23°C° 0 mm 5 mps 748 mmHg 54%
11:00 +25°C° 0 mm 4 mps 748 mmHg 47%
12:00 +26°C° 0 mm 4 mps 748 mmHg 44%
13:00 +27°C° 0 mm 4 mps 748 mmHg 41%
14:00 +27°C° 0 mm 4 mps 748 mmHg 39%
15:00 +27°C° 0 mm 4 mps 748 mmHg 39%
16:00 +27°C° 0 mm 4 mps 748 mmHg 40%
17:00 +27°C° 0 mm 4 mps 748 mmHg 40%
18:00 +25°C° 0 mm 3 mps 748 mmHg 45%
19:00 +24°C° 0 mm 3 mps 749 mmHg 50%
20:00 +21°C° 0 mm 2 mps 749 mmHg 55%
21:00 +21°C° 0 mm 2 mps 749 mmHg 58%
22:00 +20°C° 0 mm 2 mps 749 mmHg 60%
23:00 +20°C° 0 mm 1 mps 749 mmHg 62%
Show more

We Need Your Consent

Meteoprog and our Service Providers may store and access personal data such as cookies, device identifiers or other similar technologies on your device and process such data to personalise content and ads, as well as provide social media features and to analyse the traffic.

  • Store and/or access information on your device

    Cookies, device identifiers or other information can be stored or accessed on your device for the purposes indicated above.

  • Personalised ads and content, ad and content measurement, audience insights, and products development

    Ads and content can be personalised based on a profile. More data can be added to better personalise ads and content. Ad and content performance can be measured. Insights about the audience who saw the ads and content can be derived. Such data can be used to develop or improve user’s experience, systems and software.

By clicking ‘I Agree’ you will allow the use of indicated cookies, device identifiers, web beacons or other similar technologies. Your settings can be changed in the browser on your device.

For certain purposes, legitimate interests may be relied on, rather than consent. You can read more about this in our Privacy and Cookie Policy.